CMP2742 MPTO-SABE

Flight info

Callsign CMP2742
Flight time N/A
Altitude 35000
Route DANDA1B DANDA DCT IRATA UN420 EGBAK/N0450F370 UN420 RCO UL417 TOPOG UL404 ISOPO/N0374F230 T672 ROS W20 MULTA W24 SNT SNT8Q
Aircraft B737/M-SDE2E3FGHIRWXY/LB1

Departure

Time 2026-04-30 17:41
Airport Tocumen International Airport (MPTO)

Arrival

Time N/A
Airport Aeroparque Jorge Newbery (SABE)
Time Latitude Longitude Altitude Speed Heading
2026-04-30 17:39 9.10798 -79.31967 2937 ft 224 kts 109°
2026-04-30 17:41 9.05124 -79.18408 6997 ft 278 kts 152°
2026-04-30 17:42 9.01474 -79.18339 7798 ft 270 kts 207°
2026-04-30 17:42 8.96431 -79.21025 10122 ft 278 kts 211°
2026-04-30 17:43 8.92940 -79.22773 11574 ft 285 kts 210°
2026-04-30 17:44 8.89066 -79.24669 12956 ft 298 kts 207°
2026-04-30 17:44 8.83291 -79.27468 14774 ft 312 kts 206°
2026-04-30 17:46 8.72295 -79.32588 16329 ft 376 kts 206°
2026-04-30 17:47 8.62523 -79.36904 18324 ft 391 kts 193°
2026-04-30 17:48 8.52138 -79.34144 20266 ft 404 kts 153°
2026-04-30 17:48 8.44633 -79.30227 21784 ft 406 kts 153°
2026-04-30 17:49 8.34431 -79.24876 23207 ft 420 kts 153°
2026-04-30 17:50 8.23975 -79.19383 24724 ft 427 kts 153°
2026-04-30 17:51 8.16009 -79.15198 25698 ft 433 kts 153°
2026-04-30 17:52 8.07913 -79.10947 26587 ft 439 kts 153°
2026-04-30 17:53 7.94226 -79.03765 27803 ft 450 kts 153°
2026-04-30 17:54 7.83116 -78.97939 28756 ft 455 kts 153°
2026-04-30 17:55 7.71844 -78.92029 29726 ft 458 kts 153°
2026-04-30 17:56 7.60628 -78.86154 30813 ft 456 kts 153°
2026-04-30 17:57 7.52217 -78.81752 31657 ft 453 kts 153°
2026-04-30 17:58 7.44015 -78.77163 32400 ft 452 kts 149°
2026-04-30 17:59 7.33287 -78.70565 33249 ft 452 kts 149°
2026-04-30 18:00 7.22570 -78.64047 34166 ft 450 kts 149°
2026-04-30 18:00 7.14524 -78.59165 34396 ft 453 kts 149°
2026-04-30 18:01 7.09118 -78.55888 34408 ft 452 kts 149°
2026-04-30 18:02 6.92984 -78.46116 34272 ft 453 kts 149°
2026-04-30 18:04 6.88676 -78.43509 34263 ft 452 kts 149°